CAPE
30 574 1240 1355 1061 1126 1061 1169 1329 1250 1285 1185 1114 1168 1422 1554 1645 811 841 688 844 929 953 1058 1157 1412 1577 1767 2017 1983 1756 1768 1696 1909 2419 2681 2644 2806 2814 2809 2604 2367 2856
117 671 1174 1256 879 1108 804 1269 1273 1222 1152 1437 1507 1322 1280 1436 1875 1667 1706 1474 1440 1354 958 967 1016 852 1084 1488 1635 1494 1445 1619 1802 2043 2228 2390 2563 2679 2682 2806 2844 2714 2807
659 963 1218 1301 965 1075 802 1203 1468 1023 1308 1407 1487 1544 1609 1827 1650 1506 1432 1708 1898 1676 1720 1716 1249 1362 1221 1244 1265 1501 1603 1869 2248 2514 2415 2034 2508 2780 2480 2588 2879 2834 2824
791 940 928 1650 1268 1055 945 855 1085 1211 732 1243 1538 1595 1720 1638 1492 1661 1581 1763 1795 1676 1424 1558 1786 1831 1681 1543 1727 1868 1964 2059 2022 1952 1809 1941 2241 2656 2251 2505 2692 2647 2654
819 868 942 1420 1459 1100 901 437 698 1302 677 875 1731 1663 1784 1545 1768 1626 1644 1430 1400 1402 1130 1205 946 1022 1169 1183 1348 1502 1553 1543 1804 1630 1319 1446 2019 2272 2096 2154 2320 2459 2571
596 835 1383 1475 1443 1187 755 612 581 1444 1437 1790 1816 1540 1589 1642 1675 1330 1170 1136 1105 982 1196 1256 742 680 762 687 725 896 1031 1410 1691 1643 1778 1424 1408 1991 2264 2237 2154 2121 2111
297 761 1117 1410 1328 1096 1064 1226 1330 1607 1522 1645 1487 1610 1631 1902 1550 1269 1096 1210 1494 1505 1127 1220 1055 1031 984 1157 1530 1174 1559 2303 1360 854 1119 1730 1668 2408 2428 2647 2639 2564 2558
144 555 913 1506 1505 881 983 1199 1609 1216 1649 1700 1557 1419 1589 1531 1400 1351 1192 1135 1330 1636 1637 1414 1383 1409 1442 1522 1696 1944 2085 2143 782 746 1082 1365 1559 2347 2221 2266 2438 2198 2285
45 95 629 960 1154 1205 1255 1458 1679 1724 1623 1678 1691 1645 1639 1502 1309 1280 1379 1298 1233 1186 1161 1204 1319 1516 1708 1838 2018 2165 2327 2323 1239 571 462 657 603 1527 1352 1375 1380 1346 1411
16 15 345 335 667 811 775 1472 1582 1631 1700 1504 1150 1237 1355 1288 1241 1281 1352 1201 1713 1612 1598 1681 1835 2058 1984 2209 2246 2136 2135 1848 1493 1105 845 595 658 1525 2033 2036 1985 2033 2147
8 17 44 103 202 328 290 760 856 1372 1844 1665 1447 1871 901 374 377 325 1074 1400 1766 1973 2189 2233 2222 2142 1800 1848 1699 1629 1274 1061 1010 1126 850 579 744 1680 2282 2335 2313 2491 2518
0 11 17 39 32 37 87 83 213 530 658 579 390 519 365 336 411 1177 938 1302 1221 1260 1220 1536 1393 1156 989 514 786 879 704 667 485 511 1115 1111 1229 1708 2142 2514 2812 2696 2523
0 0 0 6 25 70 89 98 114 106 102 157 206 252 293 341 432 388 254 356 198 476 734 651 549 448 374 513 550 391 554 196 85 368 326 796 1858 1513 1868 2594 3145 2840 2767
0 6 0 7 60 74 108 43 38 164 217 235 263 242 274 353 348 162 130 215 346 500 716 576 312 401 480 556 377 293 384 123 3 219 163 577 1437 2257 2443 2210 2372 2421 2345
10 12 0 0 29 68 53 120 320 235 157 226 271 215 409 285 126 155 180 387 379 534 722 574 516 481 420 551 282 177 159 212 285 51 136 567 950 2327 2100 1443 1997 2147 1983
20 18 8 11 19 35 33 83 287 373 110 101 205 73 259 357 338 162 223 351 290 531 688 597 466 453 419 703 650 164 96 204 62 14 293 446 750 2104 1550 1320 1911 2019 1903
30 30 7 8 8 22 44 70 136 251 276 203 236 282 95 111 61 112 73 126 254 509 586 583 493 502 400 465 424 330 174 109 132 151 312 628 878 1711 1343 1447 1899 2194 1273
25 3 6 0 10 16 37 72 122 165 152 133 225 142 94 32 0 0 37 96 219 565 507 512 543 537 327 174 122 140 199 289 234 433 470 663 975 1675 1552 1649 1945 1992 807
6 0 0 0 11 26 75 136 222 208 92 177 173 180 134 194 0 29 18 153 130 523 533 486 566 287 269 47 17 64 139 227 200 328 552 609 694 1237 1406 1760 2300 1921 1296
0 9 0 2 55 79 187 235 224 110 297 314 157 300 261 213 91 26 29 99 101 228 657 563 501 471 327 102 54 37 50 110 244 235 277 372 756 875 1039 1311 1415 1945 1483
0 0 0 3 111 166 244 361 184 159 363 311 329 596 289 303 300 163 0 55 77 145 739 700 304 373 243 494 203 52 60 108 155 191 361 535 714 792 902 1029 1065 1416 1403
0 5 0 0 45 216 347 198 91 265 345 317 371 209 427 192 442 54 32 47 178 701 1041 805 680 482 609 637 475 336 127 169 206 83 304 289 223 335 224 498 667 771 1169
28 37 0 0 38 108 389 110 280 324 405 423 109 167 268 478 537 277 49 18 122 694 1172 1298 1310 962 928 595 431 460 387 279 205 28 9 123 25 259 149 0 5 699 941
85 33 34 0 0 46 390 271 375 235 181 333 160 223 473 653 842 540 202 42 12 673 1049 1301 1531 1223 895 909 788 239 193 299 364 12 64 25 54 207 100 0 0 81 780
121 127 126 90 70 102 299 393 371 286 251 272 371 561 582 670 942 729 447 453 546 760 938 1246 1266 1253 1162 1155 919 386 440 281 159 224 86 61 49 222 357 459 0 0 58
208 227 212 183 231 272 304 474 496 481 380 290 309 521 671 550 550 679 764 579 538 704 985 1058 1232 1048 1181 1073 1069 484 590 794 515 230 259 106 73 53 124 93 25 0 30
CIN
-152 -27 -0 -0 -0 -0 -0 -0 -0 -0 -0 -0 -0 -0 -0 -0 -0 -5 -0 -1 -0 -0 -0 -0 -3 -0 -0 -5 -0 -0 -0 -0 -0 -0 -0 -0 -0 -0 -0 -0 -0 -0 -0
-188 -31 -0 -0 -1 -0 -2 -0 -0 -0 -0 -0 -0 -0 -0 -0 -0 -0 -0 -0 -0 -0 -0 -0 -0 -2 -0 -0 -0 -0 -0 -0 -0 -0 -0 -0 -0 -0 -0 -0 -0 -0 -0
-66 -17 -2 -1 -0 -1 -0 -1 -0 -0 -0 -1 -0 -0 -0 -0 -0 -0 -0 -0 -0 -0 -0 -0 -0 -1 -0 -0 -0 -0 -0 -0 -0 -0 -0 -5 -0 -0 -0 -0 -0 -0 -0
-50 -19 -7 -0 -0 -6 -0 -10 -7 -0 -0 -4 -4 -1 -0 -0 -0 -0 -0 -0 -0 -0 -0 -0 -0 -0 -0 -0 -0 -1 -0 -0 -0 -0 -13 -2 -0 -0 -0 -0 -0 -0 -0
-23 -17 -5 -0 -0 -8 -10 -8 -10 -0 -0 -7 -1 -0 -0 -0 -0 -0 -0 -0 -0 -0 -0 -0 -6 -0 -0 -6 -4 -4 -8 -12 -11 -8 -19 -14 -1 -0 -0 -1 -0 -0 -0
-24 -12 -1 -1 -1 -2 -4 -6 -5 -1 -2 -0 -0 -1 -0 -0 -0 -0 -0 -2 -0 -1 -0 -0 -15 -22 -16 -25 -31 -21 -16 -14 -12 -20 -17 -11 -33 -0 -0 -0 -0 -4 -3
-34 -11 -10 -0 -0 -7 -8 -1 -1 -0 -0 -0 -0 -0 -1 -0 -0 -0 -6 -0 -0 -0 -0 -0 -4 -7 -14 -13 -10 -21 -17 -9 -23 -37 -37 -10 -21 -1 -0 -0 -0 -0 -0
-38 -18 -9 -1 -1 -5 -4 -6 -1 -1 -1 -0 -2 -4 -0 -0 -0 -0 -0 -0 -0 -0 -0 -0 -0 -2 -12 -12 -9 -8 -9 -14 -38 -56 -52 -55 -27 -8 -2 -1 -0 -0 -0
-31 -26 -13 -6 -3 -0 -2 -6 -1 -0 -1 -2 -0 -1 -0 -0 -0 -0 -0 -0 -0 -0 -0 -1 -2 -10 -12 -9 -6 -10 -6 -3 -26 -45 -68 -109 -82 -29 -33 -31 -32 -31 -16
-51 -40 -5 -20 -17 -10 -11 -4 -2 -0 -0 -0 -4 -5 -0 -1 -0 -0 -5 -8 -0 -0 -0 -0 -3 -7 -7 -8 -7 -13 -23 -35 -50 -68 -40 -148 -50 -48 -3 -10 -11 -6 -0
-53 -32 -15 -23 -23 -14 -21 -6 -7 -0 -1 -8 -10 -0 -21 -55 -56 -67 -18 -9 -1 -0 -2 -4 -2 -15 -49 -47 -60 -71 -86 -69 -73 -55 -60 -119 -134 -36 -9 -4 -6 -3 -1
-0 -21 -15 -20 -28 -63 -83 -74 -77 -30 -24 -29 -43 -41 -78 -91 -85 -32 -62 -33 -33 -37 -51 -32 -69 -92 -153 -147 -194 -197 -160 -126 -135 -130 -45 -32 -41 -25 -16 -5 -3 -1 -0
-0 -0 -0 -39 -63 -71 -72 -86 -94 -100 -84 -34 -36 -43 -52 -52 -51 -62 -106 -111 -156 -142 -70 -75 -67 -51 -296 -281 -254 -333 -260 -256 -290 -156 -120 -88 -3 -28 -18 -4 -1 -0 -0
-0 -5 -0 -73 -65 -64 -74 -128 -140 -8 -7 -23 -58 -67 -94 -91 -86 -104 -134 -17 -32 -57 -53 -35 -290 -344 -339 -346 -336 -302 -255 -273 -293 -173 -38 -62 -44 -9 -6 -5 -6 -1 -1
-118 -104 -102 -34 -70 -72 -91 -111 -69 -98 -72 -38 -72 -24 -86 -72 -82 -27 -11 -10 -9 -68 -61 -36 -33 -314 -301 -232 -192 -151 -206 -152 -148 -269 -34 -47 -121 -17 -5 -9 -11 -2 -2
-109 -113 -30 -142 -110 -117 -156 -112 -56 -76 -49 -48 -42 -43 -80 -69 -65 -3 -6 -11 -41 -69 -89 -64 -64 -35 -194 -263 -181 -59 -193 -115 -246 -199 -217 -96 -105 -15 -15 -15 -11 -2 -1
-98 -100 -35 -194 -174 -162 -166 -165 -39 -75 -132 -117 -44 -96 -125 -33 -90 -61 -30 -61 -42 -71 -71 -135 -272 -40 -43 -247 -249 -192 -228 -274 -76 -63 -133 -57 -50 -27 -17 -18 -9 -1 -4
-131 -156 -179 -0 -227 -185 -41 -29 -48 -99 -111 -44 -56 -159 -151 -44 -0 -0 -104 -74 -35 -55 -75 -43 -45 -274 -83 -93 -358 -262 -213 -160 -183 -136 -124 -40 -23 -33 -37 -18 -8 -1 -12
-123 -0 -0 -0 -286 -193 -37 -31 -89 -83 -55 -27 -58 -82 -84 -95 -0 -33 -98 -54 -43 -54 -79 -83 -104 -67 -57 -95 -244 -273 -218 -192 -144 -72 -50 -36 -34 -68 -56 -22 -1 -0 -0
-0 -198 -0 -12 -83 -51 -37 -49 -31 -31 -118 -83 -74 -78 -69 -65 -56 -143 -85 -52 -62 -20 -47 -80 -56 -48 -36 -99 -55 -264 -41 -109 -86 -77 -95 -176 -117 -119 -58 -38 -24 -0 -0
-0 -0 -0 -20 -35 -45 -45 -54 -37 -82 -46 -58 -66 -30 -102 -48 -39 -52 -0 -76 -48 -25 -50 -73 -36 -70 -76 -44 -54 -54 -40 -100 -216 -74 -67 -110 -57 -66 -61 -55 -46 -8 -1
-0 -14 -0 -0 -88 -50 -48 -45 -77 -56 -80 -44 -48 -44 -42 -102 -33 -270 -112 -44 -51 -40 -39 -85 -43 -57 -31 -42 -57 -54 -123 -182 -161 -95 -86 -67 -88 -87 -157 -80 -58 -60 -21
-30 -37 -0 -0 -97 -82 -55 -76 -81 -33 -62 -46 -47 -35 -30 -38 -40 -37 -119 -82 -37 -30 -30 -48 -45 -44 -43 -65 -45 -74 -77 -115 -104 -41 -45 -71 -49 -74 -39 -0 -7 -52 -38
-30 -24 -38 -0 -0 -133 -75 -79 -69 -30 -29 -40 -23 -206 -71 -46 -40 -34 -31 -74 -111 -25 -31 -45 -54 -65 -71 -33 -33 -68 -87 -125 -124 -16 -14 -22 -222 -148 -34 -0 -0 -120 -67
-42 -200 -198 -70 -27 -105 -75 -84 -56 -39 -32 -22 -26 -54 -37 -38 -32 -27 -22 -30 -45 -26 -33 -41 -32 -36 -101 -100 -108 -41 -38 -51 -47 -20 -15 -8 -98 -141 -107 -98 -0 -0 -129
-163 -166 -143 -136 -31 -40 -57 -59 -46 -30 -26 -25 -70 -42 -40 -36 -46 -39 -14 -22 -47 -56 -59 -49 -40 -40 -43 -62 -111 -31 -41 -109 -56 -41 -23 -26 -11 -17 -186 -196 -191 -0 -43
Wind_Speed
nan 8 6 7 9 8 9 9 19 17 13 10 9 8 8 8 10 9 9 10 9 11 9 11 9 7 8 5 7 8 9 11 11 9 8 8 7 10 10 10 7 5 7
10 9 7 7 9 10 10 8 15 18 14 12 12 11 8 7 9 8 9 8 9 11 11 10 9 8 6 7 9 10 10 9 9 7 6 7 8 8 9 9 9 6 5
6 11 10 8 4 9 11 9 11 19 16 12 11 11 8 9 10 9 8 6 9 10 8 9 8 7 9 9 8 9 9 9 7 8 6 4 7 8 7 7 7 7 5
8 12 12 9 7 7 11 11 12 18 17 12 13 10 11 12 8 10 8 8 8 9 8 7 7 5 5 5 6 7 6 6 7 8 4 2 4 5 7 7 5 6 6
13 13 13 10 9 9 8 9 16 16 15 13 13 12 16 10 9 8 6 9 8 7 6 6 3 3 3 2 3 3 1 1 5 8 5 3 2 7 7 8 8 9 5
6 10 13 11 11 11 10 9 16 19 16 19 12 14 14 7 9 7 8 9 7 6 6 5 3 2 2 1 3 4 3 5 8 8 7 8 8 10 11 12 11 12 3
6 11 14 13 14 16 15 13 21 19 17 15 13 13 8 10 9 8 10 9 7 8 9 6 4 4 4 5 5 4 5 6 4 4 5 10 10 11 11 10 12 16 8
4 14 15 14 14 16 18 17 17 20 15 13 13 13 10 8 6 8 9 8 9 11 10 7 7 7 5 4 5 7 8 5 5 7 4 4 6 8 8 8 12 15 10
nan nan 17 21 12 14 16 20 21 19 17 14 15 16 8 6 5 6 8 8 8 9 8 7 7 8 8 6 5 5 4 8 5 3 2 3 4 10 11 11 12 13 13
nan nan 18 20 18 17 22 25 25 25 18 14 18 12 9 9 8 8 9 4 6 9 7 8 6 7 8 13 13 14 17 17 7 4 3 1 4 12 11 11 12 14 14
nan nan nan 19 18 16 20 23 26 21 19 17 14 13 8 7 6 6 4 4 5 8 5 5 8 14 20 25 25 26 19 11 5 3 6 11 11 14 14 13 10 11 11
nan nan nan nan nan nan nan nan 22 20 17 16 15 11 9 7 6 5 5 7 8 9 6 8 16 18 24 29 26 27 13 4 4 5 7 16 15 12 16 15 9 9 11
nan nan nan nan nan nan nan nan 23 18 15 16 16 15 12 9 6 4 2 2 4 5 5 12 15 19 27 34 31 28 26 6 nan 10 13 19 19 16 20 17 12 10 9
nan nan nan nan nan nan 21 nan nan 18 14 12 14 15 12 10 7 5 2 2 3 3 7 13 15 22 32 32 27 18 13 13 nan 18 16 20 19 18 17 12 9 7 7
nan nan nan nan nan nan nan 19 19 16 14 18 16 14 11 8 7 4 4 2 1 4 9 13 16 20 31 27 21 12 27 19 26 nan 15 23 19 18 18 12 9 10 11
nan nan nan nan nan nan nan nan 18 17 16 16 12 nan 7 7 5 4 3 3 3 5 10 12 12 18 23 32 25 18 nan 18 nan nan 9 10 20 16 17 13 13 13 11
nan nan nan nan nan nan nan nan 19 21 17 16 13 8 nan 5 nan 4 nan 4 2 3 6 7 12 15 23 18 18 15 18 16 16 14 8 10 12 12 12 13 12 13 10
nan nan nan nan nan nan nan nan 22 20 16 14 10 7 nan nan nan nan nan nan 3 2 4 6 10 15 15 17 13 16 15 14 14 12 11 10 12 11 11 13 12 14 12
nan nan nan nan nan nan nan 17 22 20 nan 12 12 9 7 4 nan nan nan 7 3 4 3 5 7 11 12 nan nan nan 14 9 4 11 9 11 10 10 11 14 10 8 10
nan nan nan nan nan nan 10 17 18 18 15 13 11 10 2 7 nan nan nan nan 4 5 2 3 7 7 7 6 nan nan nan 14 11 11 12 10 5 4 11 12 9 9 10
nan nan nan nan 15 12 18 14 11 13 12 11 14 8 7 6 5 3 nan nan nan 10 4 5 7 6 7 8 10 nan nan 19 14 12 12 5 5 6 6 7 9 10 11
nan nan nan nan nan 13 16 14 nan 10 10 11 11 12 7 5 4 nan nan nan 6 8 5 0 3 5 5 7 12 12 12 13 19 nan 14 14 10 9 5 6 7 10 12
nan nan nan nan nan 8 10 11 13 13 15 14 13 8 7 4 2 3 nan nan 7 5 4 1 1 5 4 7 12 9 9 15 14 nan nan 12 nan 6 5 nan nan 10 12
nan nan nan nan nan nan 7 9 9 8 9 8 6 5 9 5 4 3 4 nan nan 3 2 2 2 5 4 4 9 9 9 12 12 nan nan nan nan 3 4 nan nan nan 12
3 4 6 nan nan 4 5 8 6 9 8 11 7 7 6 7 5 4 4 4 3 3 3 3 4 5 3 3 7 9 8 7 10 13 nan nan nan 16 9 7 nan nan nan
6 8 10 10 7 5 5 5 8 8 8 11 9 8 6 7 6 3 3 5 5 4 4 5 5 4 3 1 5 6 5 7 9 12 12 15 nan nan 11 nan nan nan nan
Wind_Direction
nan 173 165 183 197 200 228 259 221 222 229 234 239 248 260 262 272 281 281 285 285 283 270 283 287 263 267 303 331 331 332 333 330 316 315 313 314 312 301 299 291 282 290
233 209 196 204 206 197 192 225 215 209 221 237 243 248 243 268 265 270 273 271 284 286 302 309 289 302 331 1 345 329 333 325 319 315 315 327 323 311 304 304 302 318 314
214 209 214 226 206 190 176 208 224 193 207 216 229 247 254 258 260 274 272 278 265 281 302 293 308 329 355 352 324 340 336 338 330 299 305 323 343 326 321 328 332 327 344
212 205 215 209 210 197 200 187 199 196 191 212 222 237 243 254 277 265 262 267 269 274 271 293 299 331 328 318 336 332 338 335 322 325 334 334 335 337 327 325 332 356 10
198 197 205 203 194 202 199 220 182 188 199 207 223 229 242 252 261 263 251 243 254 268 279 263 291 302 307 352 311 285 272 30 354 339 324 306 333 353 335 329 348 345 348
203 203 217 191 203 196 194 182 167 188 194 210 209 225 235 250 259 247 235 235 246 260 258 249 233 248 268 235 237 218 132 89 62 25 5 5 357 12 353 353 1 344 309
217 189 193 203 201 200 204 207 175 200 201 210 207 222 229 241 241 236 232 234 238 242 237 223 200 178 194 203 209 212 187 167 289 356 18 7 13 18 8 12 14 38 79
229 183 176 198 203 198 198 193 199 197 202 212 227 226 234 236 236 239 236 238 240 235 229 223 212 193 203 225 235 233 221 188 329 312 325 339 57 43 34 32 31 46 81
nan nan 184 182 192 200 203 200 197 194 202 219 229 235 216 221 217 238 231 228 239 228 218 223 220 216 218 244 266 260 217 206 247 249 352 271 81 74 60 45 50 51 55
nan nan 197 188 190 186 184 213 209 200 206 216 206 210 186 191 196 214 227 214 218 225 212 233 232 253 283 285 282 267 248 229 225 81 43 101 24 78 69 57 49 57 57
nan nan nan 191 192 194 192 191 199 200 207 202 193 179 170 167 175 200 200 217 193 217 217 268 271 279 281 286 287 279 261 270 88 72 59 102 70 71 63 66 55 65 68
nan nan nan nan nan nan nan nan 187 195 201 201 197 163 162 158 161 175 176 182 217 224 237 295 310 306 309 321 319 312 302 176 53 99 86 117 95 81 83 80 60 67 63
nan nan nan nan nan nan nan nan 184 187 170 175 168 166 156 147 149 172 174 213 243 246 355 339 336 336 326 328 327 325 330 250 nan 92 102 122 112 89 86 81 66 44 50
nan nan nan nan nan nan 174 nan nan 180 175 175 171 172 160 164 168 173 159 174 278 349 351 353 349 342 348 4 355 339 334 277 nan 82 80 103 110 101 76 69 37 31 71
nan nan nan nan nan nan nan 181 187 192 198 173 170 168 170 168 171 180 183 131 293 14 356 1 3 350 357 6 2 44 27 71 54 nan 70 101 104 85 57 51 20 44 56
nan nan nan nan nan nan nan nan 185 186 165 162 163 nan 174 163 173 218 154 122 52 20 14 9 357 3 9 35 44 61 nan 70 nan nan 86 95 103 77 51 40 20 38 63
nan nan nan nan nan nan nan nan 161 155 148 157 166 145 nan 196 nan 212 nan 93 107 49 14 353 9 2 8 25 29 47 54 63 74 74 83 67 73 74 39 27 22 33 23
nan nan nan nan nan nan nan nan 152 143 146 160 144 145 nan nan nan nan nan nan 149 176 285 358 16 11 4 4 44 39 53 58 60 74 73 59 50 42 35 16 21 26 21
nan nan nan nan nan nan nan 162 154 151 nan 154 161 163 155 176 nan nan nan 167 174 214 259 24 19 15 27 nan nan nan 34 19 34 53 46 62 50 45 39 21 16 37 37
nan nan nan nan nan nan 181 168 166 161 156 158 180 178 202 182 nan nan nan nan 206 259 267 43 24 19 19 45 nan nan nan 20 23 21 19 37 31 32 38 28 18 44 47
nan nan nan nan 127 147 170 161 147 169 169 166 158 204 203 159 97 16 nan nan nan 274 146 92 56 12 33 42 41 nan nan 35 38 37 47 51 66 38 43 33 33 51 62
nan nan nan nan nan 129 171 174 nan 174 178 167 185 180 174 181 137 nan nan nan 188 172 244 129 44 46 79 61 54 46 59 51 42 nan 46 62 71 68 56 59 53 46 56
nan nan nan nan nan 138 150 180 183 192 195 187 196 188 165 116 142 166 nan nan 151 180 204 124 21 60 82 89 74 63 53 61 65 nan nan 48 nan 71 66 nan nan 62 58
nan nan nan nan nan nan 158 172 174 185 217 194 201 170 155 152 182 145 241 nan nan 116 79 89 359 96 94 82 82 62 47 54 56 nan nan nan nan 72 57 nan nan nan 49
157 217 220 nan nan 184 195 164 174 189 202 221 179 190 173 172 180 176 221 180 188 131 126 171 177 153 171 65 78 71 55 52 52 51 nan nan nan 56 72 64 nan nan nan
237 219 228 231 197 185 234 198 196 183 197 216 196 188 187 192 190 198 220 149 156 173 160 178 173 203 211 89 96 82 70 56 62 63 57 67 nan nan 69 nan nan nan nan